Zurück zum Katalog

BEIJING-3C 03

AktivWissenschaftSSO
NORAD 59807·PAYLOAD·🇨🇳 China
Dieser Satellitenname wurde noch nicht durch offizielle Quellen bestätigt.

Gestartet May 20, 2024 von Taiyuan Satellite Launch Center

Loading…

Nächste Überflüge (nächste 24 Stunden)

TLE

AktuellSource: Space-Track

Epoche: Sep 14, 2026, 14:40 UTC

1 59807U 24094C   26257.61133347  .00004908  00000-0  25235-3 0  9999
2 59807  97.3841 326.5302 0002189  62.0233 298.1222 15.16904944128718

Verfolge BEIJING-3C 03 in Echtzeit mit AllMySat

Download on the App Store